Flag for Falkland Islands Weather past 2 weeks in Stanley, Falkland Islands

Now
32 °F

Clear.


Feels Like: 22 °F
Forecast: 37 / 41 °F
Wind: 14 mph from Northwest

Location: Mount Pleasant Airport

Current Time: Sep 18, 2014 at 11:29:17 PM

Latest Report: Sep 18, 2014 at 10:50 PM


Visibility: 10 mi

Pressure: 29.59 "Hg

Humidity: 87%

Dew point: 28 °F

Location of StanleyLocation

Historic Weather in Stanley — Graph

°F

Stanley temperature yesterday

Maximum temperature yesterday: 54 °F (at 1:50 PM)
Minimum temperature yesterday: 43 °F (at 12:50 AM)
Average temperature yesterday: 46 °F

Past Weeks' High & Low Weather Summary

 TemperatureHumidityPressure
High54 °F (Sep 17, 1:50 PM)100% (Sep 3, 11:50 PM)30.15 "Hg (Sep 3, 11:50 PM)
Low32 °F (Sep 18, 8:50 PM)40% (Sep 15, 1:50 PM)28.97 "Hg (Sep 10, 12:50 AM)
Average42 °F83%29.47 "Hg
* Reported Sep 3 9:50 PM — Sep 18 9:50 PM, Stanley, Weather by CustomWeather, © 2014

Note: Actual official high and low records may vary slightly from our data, if they occured in-between our weather recording intervals... More about our weather records

Advertising

Stanley weather history for previous 24 hours

 ConditionsComfort  
Time TempWeatherWind HumidityBarometerVisibility
9:50 PM
Sep 18
32 °FPassing clouds.9 mph87%29.59 "HgN/A
8:50 PM32 °FPassing clouds.12 mph87%29.59 "HgN/A
7:50 PM34 °FPassing clouds.10 mph75%29.56 "HgN/A
6:50 PM37 °FPassing clouds.10 mph65%29.56 "HgN/A
5:50 PM39 °FPassing clouds.17 mph56%29.53 "HgN/A
4:50 PM39 °FPartly sunny.20 mph75%29.50 "HgN/A
3:50 PM43 °FBroken clouds.18 mph53%29.47 "HgN/A
2:50 PM43 °FScattered clouds.16 mph53%29.45 "HgN/A
1:50 PM45 °FPassing clouds.22 mph61%29.42 "HgN/A
12:50 PM45 °FSprinkles. Partly sunny.22 mph57%29.39 "Hg4 mi
11:50 AM45 °FRain showers. Scattered clouds.24 mph66%29.39 "HgN/A
10:50 AM41 °FPassing clouds.17 mph76%29.36 "HgN/A
9:50 AM41 °FPassing clouds.21 mph87%29.33 "HgN/A
6:50 AM34 °FLow clouds.6 mph100%29.30 "HgN/A
3:57 AM37 °FLight rain. Overcast.12 mph87%29.30 "Hg3 mi
2:50 AM41 °FLight rain. Mostly cloudy.10 mph81%29.30 "HgN/A
1:50 AM41 °FClear.9 mph76%29.30 "Hg10 mi
12:50 AM43 °FClear.10 mph57%29.30 "Hg10 mi
11:50 PM
Sep 17
43 °FClear.8 mph71%29.33 "Hg10 mi
Weather by CustomWeather, © 2014

See weather overviewHow to use our weather pages